Location: Strada George Coșbuc
(47.6577°N, 23.5639°E)
Time: 20:56:39
(UTC+02:00)

ISS - Pass Details

Date: 30 July 2017
Orbit: 412 x 421 km, 51.6° (Epoch: 19 November)

Event Time Altitude Azimuth Distance (km) Brightness Sun altitude
Rises 22:55:15 0° 289° (WNW) 2,348 1.1 -15.3°
Reaches altitude 10° 22:57:34 10° 275° (W) 1,484 -0.4 -15.5°
Maximum altitude 23:00:19 24° 219° (SW) 905 -2.2 -15.8°
Enters shadow 23:01:00 22° 199° (SSW) 951 -2.3 -15.8°
